Palm Springs, CA

11:31 AM PST on January 21, 2018 (GMT -0800)
Palm Springs International

Weather History for KPSP - March, 2013

Change the Weather History Date:

Monday, March 11, 2013

  Actual Average Record
Temperature  
Mean Temperature 68 °F 65 °F  
Max Temperature 85 °F 78 °F 95 °F (1972)
Min Temperature 50 °F 52 °F 36 °F (1939)
Degree Days  
Heating Degree Days 0 3  
Month to date heating degree days 22 33  
Since 1 July heating degree days 760 811  
Cooling Degree Days 3 3  
Month to date cooling degree days 25 22  
Year to date cooling degree days 37 49  
Growing Degree Days 18 (Base 50)    
Moisture  
Dew Point 22 °F    
Average Humidity 23    
Maximum Humidity 38    
Minimum Humidity 7    
Precipitation  
Precipitation 0.00 in 0.03 in 0.84 in (1995)
Month to date precipitation 0.04 0.44  
Year to date precipitation 0.97 2.47  
Since 1 July precipitation 2.19  
Snow  
Snow 0.00 in - - ()
Month to date snowfall 0.0  
Year to date snowfall 0.0  
Snow Depth 0.00 in    
Sea Level Pressure  
Sea Level Pressure 30.08 in    
Wind  
Wind Speed 5 mph (North)    
Max Wind Speed 12 mph    
Max Gust Speed 16 mph    
Visibility 10 miles    
Events      
T = Trace of Precipitation, MM = Missing Value Source: NWS Daily Summary

Daily Weather History Graph

Daily Weather History Graph

Search for Another Location

Airport or City:

Trip Planner

Search our weather history database for the weather conditions in past years. The results will help you decide how hot, cold, wet, or windy it might be!

Date:

Astronomy

Mar. 11, 2013 Rise Set
Actual Time 7:01 AM PDT 6:50 PM PDT
Civil Twilight 6:36 AM PDT 7:15 PM PDT
Nautical Twilight 6:07 AM PDT 7:44 PM PDT
Astronomical Twilight 5:38 AM PDT 8:13 PM PDT
Moon 6:39 AM PDT (3/11) 7:04 PM PDT (3/11)
Length of Visible Light 12h 39m
Length of Day
11h 49m
Waning Crescent, 0% of the Moon is Illuminated
Mar 11
Waning Crescent
Mar 11
New
Mar 19
First Quarter
Mar 27
Full
Apr 2
Last Quarter

Hourly Weather History & Observations

Time (PDT) Temp. Dew Point Humidity Pressure Visibility Wind Dir Wind Speed Gust Speed Precip Events Conditions
12:53 AM 57.0 °F 25.0 °F 29% 30.16 in 10.0 mi NNW 9.2 mph - N/A   Clear
1:53 AM 55.9 °F 26.1 °F 32% 30.16 in 10.0 mi NW 9.2 mph - N/A   Clear
2:53 AM 55.0 °F 28.0 °F 35% 30.15 in 10.0 mi NNW 6.9 mph - N/A   Clear
3:53 AM 54.0 °F 28.0 °F 37% 30.14 in 10.0 mi NNW 5.8 mph - N/A   Clear
4:53 AM 54.0 °F 25.0 °F 33% 30.14 in 10.0 mi NW 8.1 mph - N/A   Clear
5:53 AM 52.0 °F 26.1 °F 37% 30.14 in 10.0 mi NNW 9.2 mph - N/A   Clear
6:53 AM 52.0 °F 25.0 °F 35% 30.14 in 10.0 mi NW 6.9 mph - N/A   Clear
7:53 AM 54.0 °F 26.1 °F 34% 30.15 in 10.0 mi North 6.9 mph - N/A   Clear
8:53 AM 63.0 °F 24.1 °F 23% 30.17 in 10.0 mi NNW 5.8 mph - N/A   Clear
9:53 AM 69.1 °F 26.1 °F 20% 30.16 in 10.0 mi Calm Calm - N/A   Clear
10:53 AM 75.0 °F 15.1 °F 10% 30.14 in 10.0 mi NNE 3.5 mph - N/A   Clear
11:53 AM 79.0 °F 12.9 °F 8% 30.12 in 10.0 mi Calm Calm - N/A   Clear
12:53 PM 81.0 °F 12.0 °F 7% 30.10 in 10.0 mi Variable 4.6 mph - N/A   Clear
1:53 PM 82.9 °F 14.0 °F 8% 30.05 in 10.0 mi ENE 4.6 mph - N/A   Clear
2:53 PM 82.9 °F 12.0 °F 7% 30.03 in 10.0 mi ESE 4.6 mph - N/A   Clear
3:53 PM 82.9 °F 12.9 °F 7% 30.01 in 10.0 mi Calm Calm - N/A   Clear
4:39 PM 84.2 °F 12.2 °F 7% 29.99 in 10.0 mi Calm Calm - N/A   Clear
4:53 PM 84.0 °F 12.9 °F 7% 29.99 in 10.0 mi SE 4.6 mph - N/A   Clear
5:53 PM 82.9 °F 14.0 °F 8% 29.97 in 10.0 mi East 5.8 mph - N/A   Clear
6:53 PM 79.0 °F 21.9 °F 12% 29.98 in 10.0 mi ESE 6.9 mph - N/A   Clear
7:53 PM 73.9 °F 26.1 °F 17% 29.99 in 10.0 mi East 4.6 mph - N/A   Clear
9:53 PM 64.9 °F 30.9 °F 28% 30.04 in 10.0 mi Calm Calm - N/A   Clear
10:53 PM 66.9 °F 33.1 °F 28% 30.05 in 10.0 mi NNW 4.6 mph - N/A   Clear
11:53 PM 64.0 °F 34.0 °F 33% 30.04 in 10.0 mi WNW 5.8 mph - N/A   Clear